Location: Kumla
(59.1265°N, 15.1401°E)
Time: 04:32:17
(UTC+01:00)

Vanguard 2 - Pass Details

Date: 06 December 2023
Orbit: 554 x 2918 km, 32.9° (Epoch: 04 March)

Event Time Altitude Azimuth Distance (km) Brightness Sun altitude
Rises 18:53:10 0° 187° (S) 6,739 12.4 -27.2°
Reaches altitude 10° 19:02:58 10° 161° (SSE) 5,686 11.7 -28.4°
Maximum altitude 19:07:09 11° 146° (SSE) 5,459 11.5 -29.0°
Enters shadow 19:07:35 11° 145° (SE) 5,446 11.5 -29.0°
